Change the Weather History Date:

Friday, April 19, 2013

  Actual Average Record
Temperature  
Mean Temperature 37 °F 49 °F  
Max Temperature 52 °F 63 °F 89 °F (1987)
Min Temperature 21 °F 34 °F 17 °F (1953)
Degree Days  
Heating Degree Days 28 16  
Month to date heating degree days 476 367  
Since 1 July heating degree days 6309 6232  
Cooling Degree Days 0 0  
Month to date cooling degree days 0 0  
Year to date cooling degree days 0 0  
Moisture  
Dew Point 24 °F    
Average Humidity 63    
Maximum Humidity 84    
Minimum Humidity 41    
Precipitation  
Precipitation 0.00 in 0.09 in 2.22 in (1971)
Month to date precipitation 1.25 1.30  
Year to date precipitation 3.02 3.19  
Snow  
Snow 0.00 in 0.10 in 2.00 in (1966)
Month to date snowfall 6.7 2.6  
Since 1 July snowfall 29.3 27.9  
Snow Depth 0.00 in    
Sea Level Pressure  
Sea Level Pressure 30.05 in    
Wind  
Wind Speed 11 mph (NNW)    
Max Wind Speed 25 mph    
Max Gust Speed 31 mph    
Visibility 10 miles    
Events      
T = Trace of Precipitation, MM = Missing Value Source: NWS Daily Summary

Daily Weather History Graph

Daily Weather History Graph

Search for Another Location

Airport or City:

Trip Planner

Search our weather history database for the weather conditions in past years. The results will help you decide how hot, cold, wet, or windy it might be!

Date:

Astronomy

Apr. 19, 2013 Rise Set
Actual Time 6:56 AM CDT 8:27 PM CDT
Civil Twilight 6:28 AM CDT 8:56 PM CDT
Nautical Twilight 5:53 AM CDT 9:31 PM CDT
Astronomical Twilight 5:16 AM CDT 10:08 PM CDT
Moon 2:10 PM CDT (4/19) 3:16 AM CDT (4/19)
Length of Visible Light 14h 28m
Length of Day
13h 30m
First Quarter, 62% of the Moon is Illuminated
Apr 19
First Quarter
Apr 25
Full
May 2
Last Quarter
May 9
New
May 17
First Quarter

Hourly Weather History & Observations

Time (CDT) Temp. Windchill Dew Point Humidity Pressure Visibility Wind Dir Wind Speed Gust Speed Precip Events Conditions
12:53 AM 27.0 °F 15.6 °F 19.0 °F 72% 30.11 in 10.0 mi WNW 13.8 mph - N/A   Clear
1:53 AM 25.0 °F 16.3 °F 18.0 °F 75% 30.09 in 10.0 mi NW 8.1 mph - N/A   Clear
2:53 AM 21.9 °F 13.4 °F 17.1 °F 82% 30.08 in 10.0 mi NW 6.9 mph - N/A   Clear
3:53 AM 21.0 °F 14.6 °F 17.1 °F 85% 30.08 in 10.0 mi WNW 4.6 mph - N/A   Clear
4:53 AM 21.9 °F 15.7 °F 18.0 °F 85% 30.07 in 10.0 mi West 4.6 mph - N/A   Clear
5:53 AM 21.9 °F 14.5 °F 18.0 °F 85% 30.06 in 10.0 mi West 5.8 mph - N/A   Partly Cloudy
6:53 AM 26.1 °F 16.8 °F 21.0 °F 81% 30.03 in 10.0 mi West 9.2 mph - N/A   Overcast
7:53 AM 28.0 °F 20.0 °F 23.0 °F 81% 30.04 in 10.0 mi WNW 8.1 mph - N/A   Mostly Cloudy
8:53 AM 33.1 °F 24.4 °F 21.9 °F 64% 30.04 in 10.0 mi WNW 11.5 mph - N/A   Clear
9:53 AM 43.0 °F 35.4 °F 26.1 °F 51% 30.03 in 10.0 mi NW 16.1 mph - N/A   Clear
10:53 AM 46.0 °F 37.8 °F 27.0 °F 47% 30.02 in 10.0 mi NNW 23.0 mph 26.5 mph N/A   Clear
11:53 AM 46.9 °F - 25.0 °F 42% 30.04 in 10.0 mi NNW 17.3 mph 28.8 mph N/A   Mostly Cloudy
12:53 PM 48.9 °F - 27.0 °F 43% 30.04 in 10.0 mi NNW 20.7 mph 28.8 mph N/A   Scattered Clouds
1:53 PM 48.9 °F - 27.0 °F 43% 30.04 in 10.0 mi NNW 16.1 mph - N/A   Overcast
2:53 PM 50.0 °F - 28.0 °F 43% 30.04 in 10.0 mi NNW 18.4 mph 27.6 mph N/A   Mostly Cloudy
3:53 PM 51.1 °F - 28.9 °F 43% 30.04 in 10.0 mi North 17.3 mph 25.3 mph N/A   Scattered Clouds
4:53 PM 51.1 °F - 28.9 °F 43% 30.03 in 10.0 mi North 16.1 mph 21.9 mph N/A   Clear
5:53 PM 48.9 °F - 28.9 °F 46% 30.04 in 10.0 mi NNE 11.5 mph - N/A   Partly Cloudy
6:53 PM 48.9 °F - 28.9 °F 46% 30.03 in 10.0 mi North 12.7 mph - N/A   Partly Cloudy
7:53 PM 44.1 °F 40.8 °F 28.0 °F 53% 30.05 in 10.0 mi NNE 5.8 mph - N/A   Clear
8:53 PM 37.0 °F 31.0 °F 27.0 °F 67% 30.06 in 10.0 mi NE 8.1 mph - N/A   Clear
9:53 PM 32.0 °F 26.4 °F 26.1 °F 79% 30.07 in 10.0 mi NE 5.8 mph - N/A   Clear
10:53 PM 34.0 °F 28.8 °F 28.0 °F 79% 30.06 in 10.0 mi ENE 5.8 mph - N/A   Partly Cloudy
11:53 PM 33.1 °F 27.7 °F 28.0 °F 82% 30.06 in 10.0 mi East 5.8 mph - N/A   Clear